EW0641 Weather Reports


Display with metric or nautical units.
time (UTC)temp
F
wind
direction
speed
MPH
gust
MPH
rain 1hr
in
rain 24hr
in
rain mn
in
humidity
%
barometer
mb
20260902120041 77 226 0.0 0.0 0.00 0.04 0.03 93 1013.0
20260902114540 76 225 0.0 0.0 0.00 0.04 0.03 93 1013.1
20260902113039 76 226 0.0 0.0 0.00 0.04 0.03 93 1013.0
20260902111538 76 226 0.0 0.0 0.00 0.04 0.03 93 1013.0
20260902110038 76 226 0.0 3.0 0.00 0.04 0.03 93 1012.9
20260902104538 76 303 0.0 0.0 0.00 0.04 0.03 93 1012.8
20260902103040 76 303 0.0 0.0 0.00 0.04 0.03 93 1012.7
20260902101535 76 303 0.0 1.0 0.03 0.04 0.03 92 1012.6
20260902100040 76 313 0.0 0.0 0.03 0.04 0.03 92 1012.7
20260902094533 77 315 0.0 0.0 0.03 0.04 0.03 91 1012.7
20260902093032 77 321 0.0 3.0 0.03 0.04 0.03 91 1012.7
20260902091556 77 217 0.0 0.0 0.00 0.01 0.00 90 1012.8
20260902090031 77 216 0.0 6.0 0.00 0.01 0.00 90 1012.6
20260902084535 77 219 0.0 1.0 0.00 0.01 0.00 90 1012.6
20260902083030 77 223 0.0 4.0 0.00 0.01 0.00 89 1012.6
20260902081534 77 227 0.0 6.0 0.00 0.01 0.00 89 1012.4
20260902080036 77 244 0.0 0.0 0.00 0.01 0.00 89 1012.5
20260902074530 77 255 0.0 0.0 0.00 0.01 0.00 88 1012.6
20260902073027 77 256 0.0 0.0 0.00 0.01 0.00 88 1012.5
20260902071548 77 262 0.0 0.0 0.00 0.01 0.00 87 1012.4
20260902070024 78 264 0.0 0.0 0.00 0.01 0.00 87 1012.4
20260902064522 78 266 0.0 0.0 0.00 0.01 0.00 86 1012.5
20260902063026 78 274 0.0 0.0 0.00 0.01 0.00 86 1012.7
20260902061529 78 274 0.0 0.0 0.00 0.01 0.00 86 1012.9
20260902060022 78 274 0.0 0.0 0.00 0.01 0.00 86 1013.1
20260902054532 79 274 0.0 0.0 0.00 0.01 0.00 85 1013.1
20260902053019 79 274 0.0 0.0 0.00 0.01 0.00 85 1013.1
20260902051514 79 274 0.0 0.0 0.00 0.01 0.00 85 1013.0
20260902050015 79 274 0.0 0.0 0.00 0.01 0.00 85 1013.2
20260902044517 79 274 0.0 0.0 0.00 0.01 0.00 85 1013.1
20260902043012 79 274 0.0 0.0 0.00 0.01 0.00 85 1013.1
20260902041511 79 274 0.0 0.0 0.00 0.01 0.00 85 1013.1
20260902040009 79 274 0.0 0.0 0.00 0.01 0.00 85 1012.9
20260902034509 79 274 0.0 0.0 0.00 0.01 0.01 85 1012.9
20260902033008 80 274 0.0 0.0 0.00 0.01 0.01 84 1012.7
20260902031507 80 274 0.0 0.0 0.00 0.01 0.01 83 1012.7
20260902030007 80 274 0.0 0.0 0.00 0.01 0.01 83 1012.6
20260902024510 81 274 0.0 0.0 0.00 0.01 0.01 82 1012.6
20260902023014 81 274 0.0 0.0 0.00 0.01 0.01 81 1012.7
20260902021506 82 274 0.0 0.0 0.00 0.01 0.01 80 1012.7
20260902020005 82 274 0.0 0.0 0.00 0.01 0.01 79 1012.7
20260902014505 83 288 0.0 0.0 0.00 0.01 0.01 79 1012.8
20260902013005 83 288 0.0 0.0 0.00 0.01 0.01 79 1012.8
20260902011508 83 288 0.0 0.0 0.00 0.01 0.01 79 1012.6
20260902010007 83 288 0.0 0.0 0.00 0.01 0.01 78 1012.5
20260902004503 83 288 0.0 4.0 0.00 0.01 0.01 79 1012.4
20260902003003 84 288 0.0 1.0 0.00 0.01 0.01 79 1012.3
20260902001505 84 290 0.0 3.0 0.00 0.01 0.01 78 1012.1
20260902000005 85 228 0.0 1.0 0.00 0.01 0.01 77 1012.0
20260901234501 85 284 0.0 6.0 0.00 0.01 0.01 76 1012.1
20260901233000 86 259 0.0 4.0 0.00 0.01 0.01 76 1012.0
20260901231659 86 223 0.0 4.0 0.00 0.01 0.01 77 1012.1
20260901230103 87 277 0.0 6.0 0.00 0.01 0.01 76 1012.1
20260901224559 87 250 0.0 9.0 0.00 0.01 0.01 76 1012.0
20260901223059 88 213 0.0 9.0 0.00 0.01 0.01 76 1012.1
20260901221615 89 234 0.0 6.0 0.00 0.01 0.01 74 1012.1
20260901220057 89 234 0.0 10.0 0.00 0.01 0.01 74 1012.0
20260901214557 89 226 1.0 8.0 0.00 0.01 0.01 74 1011.9
20260901213105 90 227 1.0 6.0 0.00 0.01 0.01 73 1012.0
20260901211556 89 261 0.0 5.0 0.00 0.01 0.01 73 1012.0
20260901210056 90 257 0.0 5.0 0.00 0.01 0.01 73 1012.0
20260901204555 91 238 1.0 7.0 0.00 0.01 0.01 70 1012.1
20260901203057 91 285 1.0 8.0 0.00 0.01 0.01 70 1012.0
20260901201554 91 314 0.0 10.0 0.00 0.01 0.01 69 1012.1
20260901200105 91 254 1.0 8.0 0.00 0.01 0.01 68 1012.1
20260901194602 91 269 3.0 9.0 0.00 0.01 0.01 68 1012.2
20260901193101 90 264 0.0 7.0 0.00 0.01 0.01 70 1012.3
20260901191553 90 287 0.0 8.0 0.00 0.01 0.01 70 1012.4
20260901184551 92 224 1.0 7.0 0.00 0.01 0.01 66 1012.2
20260901183051 91 300 0.0 10.0 0.00 0.01 0.01 67 1012.0
20260901181550 92 261 0.0 6.0 0.00 0.01 0.01 65 1011.9
20260901180047 92 230 0.0 4.0 0.00 0.01 0.01 65 1012.0
20260901174558 91 217 0.0 4.0 0.00 0.01 0.01 67 1012.1
20260901173043 91 281 1.0 6.0 0.00 0.01 0.01 67 1012.3
20260901171540 90 241 0.0 10.0 0.00 0.01 0.01 70 1012.4
20260901170112 89 225 0.0 8.0 0.00 0.01 0.01 71 1012.7
20260901164536 89 202 0.0 4.0 0.00 0.01 0.01 73 1013.1
20260901163034 87 199 1.0 6.0 0.00 0.01 0.01 72 1013.2
20260901161530 87 208 0.0 0.0 0.00 0.01 0.01 75 1013.2
20260901160034 86 225 0.0 0.0 0.00 0.01 0.01 75 1013.3
20260901154525 84 227 0.0 0.0 0.00 0.01 0.01 77 1013.4
20260901153022 83 273 0.0 0.0 0.00 0.01 0.01 79 1013.5
20260901151518 82 226 0.0 0.0 0.00 0.01 0.01 80 1013.7
20260901150017 82 273 0.0 0.0 0.00 0.01 0.01 79 1013.8
20260901144514 80 252 0.0 0.0 0.00 0.01 0.01 81 1013.9
20260901143016 80 251 0.0 0.0 0.00 0.01 0.01 81 1013.9
20260901141512 80 248 0.0 0.0 0.00 0.01 0.01 82 1013.6
20260901140011 80 248 0.0 0.0 0.00 0.01 0.01 81 1013.5
20260901134511 80 248 0.0 0.0 0.01 0.01 0.01 82 1013.3
20260901133008 80 248 0.0 0.0 0.01 0.01 0.01 83 1013.3
20260901131512 78 248 0.0 0.0 0.01 0.01 0.01 85 1013.3
20260901130005 78 261 0.0 0.0 0.01 0.01 0.01 86 1013.4
20260901124505 77 217 0.0 0.0 0.00 0.00 0.00 87 1013.5
20260901123004 77 217 0.0 0.0 0.00 0.00 0.00 88 1013.7
20260901121501 76 217 0.0 0.0 0.00 0.00 0.00 88 1013.6